Omak, WA

10:39 PM PST on January 23, 2018 (GMT -0800)
Omak

Weather History for KOMK - December, 2013

Change the Weather History Date:

Monday, December 23, 2013

  Actual Average Record
Temperature  
Mean Temperature 25 °F 24 °F  
Max Temperature 33 °F 30 °F 51 °F (1936)
Min Temperature 17 °F 18 °F -16 °F (1948)
Degree Days  
Heating Degree Days 40 41  
Month to date heating degree days 988 892  
Since 1 July heating degree days 2585 2425  
Cooling Degree Days 0 0  
Month to date cooling degree days 0 0  
Year to date cooling degree days 814 665  
Moisture  
Dew Point 26 °F    
Average Humidity 89    
Maximum Humidity 100    
Minimum Humidity 78    
Precipitation  
Precipitation 0.06 in 0.08 in 0.32 in (1976)
Month to date precipitation 0.11 1.61  
Year to date precipitation 10.00 14.16  
Sea Level Pressure  
Sea Level Pressure 30.20 in    
Wind  
Wind Speed 2 mph (WNW)    
Max Wind Speed 9 mph    
Max Gust Speed 12 mph    
Visibility 6 miles    
Events Fog , Snow    
T = Trace of Precipitation, MM = Missing Value Source: NWS Daily Summary

Daily Weather History Graph

Daily Weather History Graph

Search for Another Location

Airport or City:

Trip Planner

Search our weather history database for the weather conditions in past years. The results will help you decide how hot, cold, wet, or windy it might be!

Date:

Astronomy

Dec. 23, 2013 Rise Set
Actual Time 7:48 AM PST 4:06 PM PST
Civil Twilight 7:11 AM PST 4:43 PM PST
Nautical Twilight 6:31 AM PST 5:23 PM PST
Astronomical Twilight 5:52 AM PST 6:01 PM PST
Moon 10:50 PM PST (12/23) 10:49 AM PST (12/23)
Length of Visible Light 9h 32m
Length of Day
8h 18m
Waning Gibbous, 67% of the Moon is Illuminated
Dec 23
Waning Gibbous
Dec 25
Last Quarter
Jan 1
New
Jan 7
First Quarter
Jan 15
Full

Hourly Weather History & Observations

Time (PST) Temp. Windchill Dew Point Humidity Pressure Visibility Wind Dir Wind Speed Gust Speed Precip Events Conditions
12:53 AM 27.0 °F - 21.9 °F 81% 30.30 in 10.0 mi Calm Calm - N/A   Overcast
1:53 AM 27.0 °F - 21.9 °F 81% 30.28 in 10.0 mi Calm Calm - N/A   Overcast
2:53 AM 27.0 °F 23.0 °F 21.9 °F 81% 30.28 in 10.0 mi NW 3.5 mph - N/A   Overcast
3:53 AM 28.0 °F - 23.0 °F 81% 30.25 in 10.0 mi Calm Calm - N/A   Overcast
4:53 AM 28.0 °F - 23.0 °F 81% 30.25 in 10.0 mi Calm Calm - N/A   Overcast
5:53 AM 28.0 °F - 23.0 °F 81% 30.22 in 10.0 mi Calm Calm - N/A   Overcast
6:10 AM 28.4 °F - 23.0 °F 80% 30.15 in 10.0 mi Calm Calm - N/A   Overcast
6:53 AM 28.0 °F - 23.0 °F 81% 30.22 in 10.0 mi Calm Calm - N/A   Overcast
7:53 AM 28.9 °F 22.8 °F 26.1 °F 89% 30.19 in 8.0 mi South 5.8 mph - N/A   Overcast
8:53 AM 28.9 °F - 26.1 °F 89% 30.19 in 6.0 mi Calm Calm - N/A   Overcast
9:53 AM 30.0 °F - 26.1 °F 85% 30.19 in 7.0 mi Calm Calm - N/A   Overcast
10:53 AM 30.0 °F - 28.0 °F 92% 30.17 in 3.0 mi Calm Calm - N/A   Overcast
11:11 AM 30.2 °F - 26.6 °F 86% 30.10 in 2.0 mi Calm Calm - N/A   Overcast
11:21 AM 30.2 °F 26.7 °F 28.4 °F 93% 30.10 in 1.5 mi SSE 3.5 mph - N/A   Overcast
11:53 AM 30.0 °F - 28.0 °F 92% 30.12 in 1.2 mi Calm Calm - N/A   Overcast
12:53 PM 30.9 °F - 28.9 °F 92% 30.07 in 1.8 mi Calm Calm - N/A   Overcast
1:40 PM 30.2 °F 26.7 °F 28.4 °F 93% 30.04 in 2.5 mi ESE 3.5 mph - 0.02 in   Overcast
1:53 PM 30.9 °F - 28.9 °F 92% 30.11 in 1.2 mi Calm Calm - 0.02 in Snow Light Snow
1:58 PM 30.2 °F - 28.4 °F 93% 30.06 in 0.8 mi Calm Calm - 0.00 in Snow Light Snow
2:10 PM 30.2 °F 21.9 °F 28.4 °F 93% 30.02 in 0.2 mi SE 9.2 mph - 0.03 in Fog , Snow Heavy Snow
2:28 PM 32.0 °F 27.5 °F 30.2 °F 93% 30.03 in 1.0 mi South 4.6 mph - 0.04 in Snow Light Snow
2:31 PM 32.0 °F 27.5 °F 30.2 °F 93% 30.03 in 2.0 mi South 4.6 mph - 0.04 in Snow Light Snow
2:37 PM 32.0 °F - 30.2 °F 93% 30.03 in 4.0 mi Calm Calm - 0.04 in   Overcast
2:53 PM 32.0 °F - 28.9 °F 88% 30.08 in 7.0 mi Calm Calm - 0.04 in   Overcast
3:08 PM 32.0 °F - 28.4 °F 87% 30.05 in 10.0 mi Calm Calm - N/A   Overcast
3:53 PM 30.9 °F - 28.9 °F 92% 30.11 in 5.0 mi Calm Calm - N/A   Overcast
4:53 PM 30.9 °F 24.3 °F 28.9 °F 92% 30.14 in 7.0 mi NW 6.9 mph - N/A   Overcast
5:53 PM 30.9 °F 27.5 °F 28.9 °F 92% 30.17 in 8.0 mi WNW 3.5 mph - N/A   Overcast
6:53 PM 32.0 °F 25.6 °F 28.9 °F 88% 30.22 in 10.0 mi North 6.9 mph - N/A   Overcast
7:14 PM 30.2 °F 24.3 °F 28.4 °F 93% 30.19 in 10.0 mi North 5.8 mph - N/A   Overcast
7:53 PM 30.9 °F 23.5 °F 28.9 °F 92% 30.28 in 10.0 mi North 8.1 mph - N/A   Overcast
8:53 PM 30.0 °F 22.4 °F 27.0 °F 88% 30.33 in 10.0 mi NNW 8.1 mph - N/A   Mostly Cloudy
9:00 PM 30.2 °F 22.6 °F 26.6 °F 86% 30.28 in 10.0 mi NW 8.1 mph - N/A   Mostly Cloudy
9:08 PM 30.2 °F 24.3 °F 26.6 °F 86% 30.29 in 10.0 mi NW 5.8 mph - N/A   Scattered Clouds
9:53 PM 23.0 °F - 21.9 °F 96% 30.37 in 7.0 mi Calm Calm - N/A   Clear
10:19 PM 19.4 °F - 17.6 °F 93% 30.33 in 1.8 mi Calm Calm - N/A   Clear
10:24 PM 19.4 °F - 17.6 °F 93% 30.33 in 1.0 mi Calm Calm - N/A   Mist
10:31 PM 21.2 °F 12.6 °F 17.6 °F 86% 30.33 in 2.0 mi West 6.9 mph - N/A   Partly Cloudy
10:39 PM 26.6 °F 20.0 °F 21.2 °F 80% 30.33 in 7.0 mi West 5.8 mph - N/A   Clear
10:53 PM 23.0 °F - 23.0 °F 100% 30.40 in 9.0 mi Calm Calm - N/A   Clear
11:53 PM 18.0 °F 11.1 °F 15.1 °F 88% 30.43 in 10.0 mi South 4.6 mph - N/A   Clear